Time,TemperatureF,DewpointF,PressureIn,WindDirection,WindDirectionDegrees,WindSpeedMPH,WindSpeedGustMPH,Humidity,HourlyPrecipIn,Conditions,Clouds,dailyrainin,SoftwareType,DateUTC
2013-02-13 00:02:00,46.0,42.0,30.04,NE,55,0.0,0.0,85,0.00,,,0.00,,2013-02-13 05:02:00,
2013-02-13 00:12:00,46.0,42.0,30.03,NE,55,0.0,0.0,86,0.01,,,0.01,,2013-02-13 05:12:00,
2013-02-13 00:22:00,46.0,42.0,30.03,NE,55,0.0,0.0,86,0.01,,,0.01,,2013-02-13 05:22:00,
2013-02-13 00:32:00,46.0,42.0,30.03,NE,55,0.0,0.0,86,0.01,,,0.01,,2013-02-13 05:32:00,
2013-02-13 00:42:00,46.0,42.0,30.03,NE,55,0.0,0.0,86,0.01,,,0.01,,2013-02-13 05:42:00,
2013-02-13 00:52:00,46.0,43.0,30.01,NE,55,0.0,0.0,88,0.01,,,0.01,,2013-02-13 05:52:00,
2013-02-13 01:02:00,45.0,42.0,29.99,NE,55,0.0,0.0,88,0.01,,,0.01,,2013-02-13 06:02:00,
2013-02-13 01:11:00,45.0,42.0,29.98,NE,55,0.0,0.0,89,0.00,,,0.01,,2013-02-13 06:11:00,
2013-02-13 01:21:00,45.0,42.0,29.98,NE,55,0.0,0.0,89,0.00,,,0.01,,2013-02-13 06:21:00,
2013-02-13 01:32:00,45.0,42.0,29.97,NE,55,0.0,0.0,89,0.00,,,0.01,,2013-02-13 06:32:00,
2013-02-13 01:42:00,45.0,41.0,29.98,NE,55,0.0,1.0,85,0.00,,,0.01,,2013-02-13 06:42:00,
2013-02-13 01:52:00,45.0,41.0,29.98,NE,55,0.0,1.0,85,0.00,,,0.01,,2013-02-13 06:52:00,
2013-02-13 02:02:00,45.0,40.0,29.99,NE,55,0.0,1.0,83,0.00,,,0.01,,2013-02-13 07:02:00,
2013-02-13 02:11:00,46.0,40.0,29.98,SSW,213,0.0,2.0,79,0.00,,,0.01,,2013-02-13 07:11:00,
2013-02-13 02:22:00,46.0,40.0,29.98,SSW,213,0.0,2.0,79,0.00,,,0.01,,2013-02-13 07:22:00,
2013-02-13 02:32:00,46.0,41.0,29.97,SSW,195,0.0,4.0,81,0.00,,,0.01,,2013-02-13 07:32:00,
2013-02-13 02:42:00,45.0,41.0,29.94,SW,217,0.0,0.0,85,0.00,,,0.01,,2013-02-13 07:42:00,
2013-02-13 02:52:00,45.0,41.0,29.94,SW,217,0.0,0.0,85,0.00,,,0.01,,2013-02-13 07:52:00,
2013-02-13 03:01:00,45.0,41.0,29.96,SW,217,0.0,1.0,86,0.01,,,0.02,,2013-02-13 08:01:00,
2013-02-13 03:11:00,45.0,41.0,29.96,SW,217,0.0,1.0,86,0.01,,,0.02,,2013-02-13 08:11:00,
2013-02-13 03:21:00,44.0,41.0,29.94,SW,217,0.0,0.0,88,0.01,,,0.02,,2013-02-13 08:21:00,
2013-02-13 03:32:00,44.0,41.0,29.94,SW,217,0.0,1.0,89,0.01,,,0.02,,2013-02-13 08:32:00,
2013-02-13 03:43:00,44.0,41.0,29.94,SW,217,0.0,1.0,89,0.01,,,0.02,,2013-02-13 08:43:00,
2013-02-13 03:52:00,44.0,41.0,29.94,SW,217,0.0,0.0,89,0.01,,,0.02,,2013-02-13 08:52:00,
2013-02-13 04:01:00,44.0,41.0,29.95,SW,217,0.0,1.0,89,0.00,,,0.02,,2013-02-13 09:01:00,
2013-02-13 04:11:00,44.0,41.0,29.95,SW,217,0.0,1.0,89,0.00,,,0.02,,2013-02-13 09:11:00,
2013-02-13 04:21:00,44.0,41.0,29.94,SW,217,0.0,0.0,90,0.00,,,0.02,,2013-02-13 09:21:00,
2013-02-13 04:31:00,44.0,41.0,29.94,SW,217,0.0,0.0,90,0.01,,,0.03,,2013-02-13 09:31:00,
2013-02-13 04:42:00,44.0,42.0,29.92,SW,217,0.0,0.0,91,0.01,,,0.03,,2013-02-13 09:42:00,
2013-02-13 04:52:00,44.0,42.0,29.92,SW,217,0.0,0.0,91,0.01,,,0.03,,2013-02-13 09:52:00,
2013-02-13 05:01:00,44.0,42.0,29.92,SW,217,0.0,0.0,91,0.01,,,0.03,,2013-02-13 10:01:00,
2013-02-13 05:11:00,43.0,41.0,29.91,SW,217,0.0,0.0,91,0.01,,,0.03,,2013-02-13 10:11:00,
2013-02-13 05:21:00,43.0,41.0,29.91,SW,217,0.0,0.0,91,0.01,,,0.03,,2013-02-13 10:21:00,
2013-02-13 05:32:00,43.0,41.0,29.92,SW,232,0.0,1.0,92,0.00,,,0.03,,2013-02-13 10:32:00,
2013-02-13 05:42:00,43.0,41.0,29.91,SW,232,0.0,0.0,92,0.00,,,0.03,,2013-02-13 10:42:00,
2013-02-13 05:52:00,43.0,41.0,29.91,SW,232,0.0,0.0,92,0.00,,,0.03,,2013-02-13 10:52:00,
2013-02-13 06:01:00,43.0,41.0,29.91,SW,232,0.0,0.0,92,0.00,,,0.03,,2013-02-13 11:01:00,
2013-02-13 06:11:00,43.0,41.0,29.91,SW,232,0.0,0.0,92,0.00,,,0.03,,2013-02-13 11:11:00,
2013-02-13 06:22:00,43.0,41.0,29.90,SW,233,0.0,2.0,92,0.00,,,0.03,,2013-02-13 11:22:00,
2013-02-13 06:32:00,43.0,41.0,29.89,SW,233,0.0,0.0,92,0.00,,,0.03,,2013-02-13 11:32:00,
2013-02-13 06:42:00,43.0,41.0,29.92,SW,233,0.0,0.0,92,0.00,,,0.03,,2013-02-13 11:42:00,
2013-02-13 06:52:00,43.0,41.0,29.92,SW,233,0.0,0.0,92,0.00,,,0.03,,2013-02-13 11:52:00,
2013-02-13 07:02:00,43.0,41.0,29.91,SW,233,0.0,0.0,92,0.00,,,0.03,,2013-02-13 12:02:00,
2013-02-13 07:11:00,43.0,41.0,29.90,SW,233,0.0,1.0,92,0.00,,,0.03,,2013-02-13 12:11:00,
2013-02-13 07:22:00,43.0,41.0,29.90,SW,233,0.0,1.0,92,0.00,,,0.03,,2013-02-13 12:22:00,
2013-02-13 07:32:00,43.0,41.0,29.90,SW,233,0.0,1.0,92,0.00,,,0.03,,2013-02-13 12:32:00,
2013-02-13 07:42:00,43.0,41.0,29.91,WSW,241,0.0,1.0,92,0.00,,,0.03,,2013-02-13 12:42:00,
2013-02-13 07:52:00,43.0,41.0,29.91,WSW,241,0.0,1.0,92,0.00,,,0.03,,2013-02-13 12:52:00,
2013-02-13 08:02:00,43.0,41.0,29.89,WSW,241,0.0,0.0,92,0.00,,,0.03,,2013-02-13 13:02:00,
2013-02-13 08:11:00,43.0,41.0,29.89,WSW,241,0.0,0.0,93,0.00,,,0.03,,2013-02-13 13:11:00,
2013-02-13 08:21:00,43.0,41.0,29.89,WSW,241,0.0,0.0,93,0.00,,,0.03,,2013-02-13 13:21:00,
2013-02-13 08:32:00,43.0,41.0,29.91,WSW,241,0.0,0.0,93,0.00,,,0.03,,2013-02-13 13:32:00,
2013-02-13 08:42:00,43.0,41.0,29.90,WSW,241,0.0,0.0,93,0.00,,,0.03,,2013-02-13 13:42:00,
2013-02-13 08:52:00,43.0,41.0,29.90,WSW,241,0.0,0.0,93,0.00,,,0.03,,2013-02-13 13:52:00,
2013-02-13 09:01:00,43.0,41.0,29.91,WSW,241,0.0,0.0,93,0.00,,,0.03,,2013-02-13 14:01:00,
2013-02-13 09:11:00,43.0,41.0,29.88,WSW,241,0.0,1.0,93,0.00,,,0.03,,2013-02-13 14:11:00,
2013-02-13 09:21:00,43.0,41.0,29.88,WSW,241,0.0,1.0,93,0.00,,,0.03,,2013-02-13 14:21:00,
2013-02-13 09:32:00,43.0,41.0,29.87,WSW,241,0.0,0.0,93,0.00,,,0.03,,2013-02-13 14:32:00,
2013-02-13 09:42:00,43.0,41.0,29.89,WSW,241,0.0,0.0,93,0.00,,,0.03,,2013-02-13 14:42:00,
2013-02-13 09:52:00,43.0,41.0,29.89,WSW,241,0.0,0.0,93,0.00,,,0.03,,2013-02-13 14:52:00,
2013-02-13 10:01:00,44.0,42.0,29.91,WSW,241,0.0,0.0,93,0.00,,,0.03,,2013-02-13 15:01:00,
2013-02-13 10:11:00,44.0,42.0,29.87,WSW,241,0.0,0.0,94,0.01,,,0.04,,2013-02-13 15:11:00,
2013-02-13 10:21:00,44.0,42.0,29.87,WSW,241,0.0,0.0,94,0.01,,,0.04,,2013-02-13 15:21:00,
2013-02-13 10:32:00,44.0,42.0,29.87,WSW,241,0.0,0.0,94,0.01,,,0.04,,2013-02-13 15:32:00,
2013-02-13 10:42:00,44.0,42.0,29.87,WSW,241,0.0,0.0,94,0.01,,,0.04,,2013-02-13 15:42:00,
2013-02-13 10:52:00,44.0,42.0,29.86,WSW,241,0.0,0.0,94,0.01,,,0.04,,2013-02-13 15:52:00,
2013-02-13 11:01:00,44.0,42.0,29.87,WSW,241,0.0,0.0,94,0.01,,,0.04,,2013-02-13 16:01:00,
2013-02-13 11:11:00,44.0,42.0,29.85,WSW,241,0.0,1.0,94,0.00,,,0.04,,2013-02-13 16:11:00,
2013-02-13 11:21:00,44.0,42.0,29.85,WSW,241,0.0,1.0,94,0.00,,,0.04,,2013-02-13 16:21:00,
2013-02-13 11:32:00,44.0,42.0,29.83,SW,223,0.0,2.0,94,0.01,,,0.05,,2013-02-13 16:32:00,
2013-02-13 11:42:00,44.0,42.0,29.83,SW,223,0.0,2.0,94,0.01,,,0.05,,2013-02-13 16:42:00,
2013-02-13 11:52:00,45.0,43.0,29.85,SW,223,0.0,0.0,94,0.01,,,0.05,,2013-02-13 16:52:00,
2013-02-13 12:01:00,45.0,43.0,29.80,WSW,257,0.0,1.0,94,0.01,,,0.05,,2013-02-13 17:01:00,
2013-02-13 12:11:00,45.0,43.0,29.80,WSW,257,0.0,1.0,94,0.01,,,0.05,,2013-02-13 17:11:00,
2013-02-13 12:21:00,45.0,43.0,29.81,WSW,254,0.0,1.0,94,0.01,,,0.05,,2013-02-13 17:21:00,
2013-02-13 12:32:00,45.0,43.0,29.81,WSW,255,0.0,0.0,94,0.00,,,0.05,,2013-02-13 17:32:00,
2013-02-13 12:42:00,45.0,43.0,29.81,WSW,255,0.0,0.0,94,0.00,,,0.05,,2013-02-13 17:42:00,
2013-02-13 12:52:00,45.0,43.0,29.81,WSW,254,0.0,1.0,94,0.01,,,0.06,,2013-02-13 17:52:00,
2013-02-13 13:02:00,45.0,43.0,29.81,WSW,255,0.0,0.0,94,0.01,,,0.06,,2013-02-13 18:02:00,
2013-02-13 13:11:00,45.0,43.0,29.78,West,275,0.0,1.0,94,0.01,,,0.06,,2013-02-13 18:11:00,
2013-02-13 13:23:00,45.0,43.0,29.78,West,275,0.0,1.0,94,0.01,,,0.06,,2013-02-13 18:23:00,
2013-02-13 13:32:00,45.0,43.0,29.77,West,275,0.0,0.0,94,0.01,,,0.06,,2013-02-13 18:32:00,
2013-02-13 13:42:00,45.0,43.0,29.77,West,275,0.0,0.0,94,0.01,,,0.06,,2013-02-13 18:42:00,
2013-02-13 13:52:00,45.0,43.0,29.77,West,275,0.0,1.0,94,0.00,,,0.06,,2013-02-13 18:52:00,
2013-02-13 14:01:00,45.0,43.0,29.77,West,275,0.0,0.0,94,0.00,,,0.06,,2013-02-13 19:01:00,
2013-02-13 14:11:00,46.0,44.0,29.76,West,275,0.0,1.0,94,0.00,,,0.06,,2013-02-13 19:11:00,
2013-02-13 14:21:00,46.0,44.0,29.76,West,275,0.0,1.0,94,0.00,,,0.06,,2013-02-13 19:21:00,
2013-02-13 14:32:00,46.0,44.0,29.76,West,275,0.0,0.0,94,0.00,,,0.06,,2013-02-13 19:32:00,
2013-02-13 14:42:00,46.0,44.0,29.76,West,275,0.0,0.0,94,0.00,,,0.06,,2013-02-13 19:42:00,
2013-02-13 14:52:00,46.0,44.0,29.76,West,274,0.0,1.0,94,0.00,,,0.06,,2013-02-13 19:52:00,
2013-02-13 15:02:00,46.0,44.0,29.76,West,274,0.0,1.0,94,0.00,,,0.06,,2013-02-13 20:02:00,
2013-02-13 15:11:00,46.0,44.0,29.76,West,274,0.0,1.0,94,0.00,,,0.06,,2013-02-13 20:11:00,
2013-02-13 15:21:00,46.0,44.0,29.76,West,274,0.0,1.0,94,0.00,,,0.06,,2013-02-13 20:21:00,
2013-02-13 15:32:00,46.0,44.0,29.77,West,273,0.0,0.0,94,0.00,,,0.06,,2013-02-13 20:32:00,
2013-02-13 15:42:00,46.0,44.0,29.75,West,265,0.0,2.0,94,0.00,,,0.06,,2013-02-13 20:42:00,
2013-02-13 15:52:00,46.0,44.0,29.75,West,265,0.0,2.0,94,0.00,,,0.06,,2013-02-13 20:52:00,
2013-02-13 16:01:00,46.0,44.0,29.75,West,265,0.0,1.0,94,0.00,,,0.06,,2013-02-13 21:01:00,
2013-02-13 16:11:00,46.0,44.0,29.75,West,265,0.0,1.0,94,0.00,,,0.06,,2013-02-13 21:11:00,
2013-02-13 16:21:00,46.0,45.0,29.77,SSE,167,0.0,2.0,95,0.01,,,0.07,,2013-02-13 21:21:00,
2013-02-13 16:31:00,46.0,44.0,29.76,ESE,106,0.0,2.0,94,0.01,,,0.07,,2013-02-13 21:31:00,
2013-02-13 16:42:00,46.0,44.0,29.77,East,80,0.0,1.0,94,0.01,,,0.07,,2013-02-13 21:42:00,
2013-02-13 16:52:00,46.0,44.0,29.77,East,80,0.0,1.0,94,0.01,,,0.07,,2013-02-13 21:52:00,
2013-02-13 17:02:00,46.0,44.0,29.77,ESE,111,0.0,2.0,94,0.01,,,0.07,,2013-02-13 22:02:00,
2013-02-13 17:11:00,46.0,44.0,29.78,ESE,111,0.0,1.0,94,0.00,,,0.07,,2013-02-13 22:11:00,
2013-02-13 17:21:00,46.0,44.0,29.78,ESE,111,0.0,1.0,94,0.00,,,0.07,,2013-02-13 22:21:00,
2013-02-13 17:32:00,46.0,44.0,29.78,ESE,111,0.0,1.0,94,0.00,,,0.07,,2013-02-13 22:32:00,
2013-02-13 17:42:00,46.0,44.0,29.78,ESE,111,0.0,1.0,94,0.00,,,0.07,,2013-02-13 22:42:00,
2013-02-13 17:52:00,47.0,45.0,29.78,NE,51,0.0,2.0,94,0.00,,,0.07,,2013-02-13 22:52:00,
2013-02-13 18:01:00,47.0,45.0,29.79,NE,51,0.0,1.0,93,0.00,,,0.07,,2013-02-13 23:01:00,
2013-02-13 18:11:00,47.0,45.0,29.80,NNW,330,0.0,0.0,93,0.00,,,0.07,,2013-02-13 23:11:00,
2013-02-13 18:21:00,47.0,45.0,29.80,NNW,330,0.0,0.0,93,0.00,,,0.07,,2013-02-13 23:21:00,
2013-02-13 18:32:00,46.0,44.0,29.80,SE,135,0.0,1.0,93,0.00,,,0.07,,2013-02-13 23:32:00,
2013-02-13 18:42:00,46.0,44.0,29.80,SE,135,0.0,1.0,93,0.00,,,0.07,,2013-02-13 23:42:00,
2013-02-13 18:52:00,45.0,43.0,29.82,SE,135,0.0,0.0,93,0.00,,,0.07,,2013-02-13 23:52:00,
2013-02-13 19:02:00,45.0,43.0,29.82,SE,134,0.0,1.0,93,0.00,,,0.07,,2013-02-14 00:02:00,
2013-02-13 19:11:00,45.0,43.0,29.82,SE,134,0.0,1.0,93,0.00,,,0.07,,2013-02-14 00:11:00,
2013-02-13 19:22:00,45.0,43.0,29.84,SE,134,0.0,0.0,93,0.00,,,0.07,,2013-02-14 00:22:00,
2013-02-13 19:32:00,45.0,43.0,29.85,SE,135,0.0,0.0,93,0.00,,,0.07,,2013-02-14 00:32:00,
2013-02-13 19:42:00,45.0,43.0,29.85,SE,135,0.0,0.0,93,0.00,,,0.07,,2013-02-14 00:42:00,
2013-02-13 19:52:00,44.0,42.0,29.85,SE,135,0.0,0.0,93,0.00,,,0.07,,2013-02-14 00:52:00,
2013-02-13 20:01:00,44.0,42.0,29.86,SSE,148,0.0,1.0,93,0.00,,,0.07,,2013-02-14 01:01:00,
2013-02-13 20:11:00,44.0,42.0,29.86,SSE,148,0.0,1.0,93,0.00,,,0.07,,2013-02-14 01:11:00,
2013-02-13 20:21:00,44.0,42.0,29.87,ENE,64,2.0,5.0,94,0.00,,,0.07,,2013-02-14 01:21:00,
2013-02-13 20:32:00,45.0,43.0,29.88,ENE,74,1.0,4.0,94,0.00,,,0.07,,2013-02-14 01:32:00,
2013-02-13 20:41:00,45.0,43.0,29.88,ENE,74,1.0,4.0,94,0.00,,,0.07,,2013-02-14 01:41:00,
2013-02-13 20:52:00,44.0,42.0,29.88,ENE,74,0.0,1.0,92,0.00,,,0.07,,2013-02-14 01:52:00,
2013-02-13 21:02:00,44.0,42.0,29.88,ENE,74,0.0,2.0,91,0.00,,,0.07,,2013-02-14 02:02:00,
2013-02-13 21:11:00,43.0,41.0,29.89,ENE,74,0.0,1.0,91,0.00,,,0.07,,2013-02-14 02:11:00,
2013-02-13 21:21:00,43.0,41.0,29.89,ENE,74,0.0,1.0,91,0.00,,,0.07,,2013-02-14 02:21:00,
2013-02-13 21:32:00,42.0,39.0,29.90,ENE,74,0.0,0.0,90,0.00,,,0.07,,2013-02-14 02:32:00,
2013-02-13 21:41:00,42.0,39.0,29.90,ENE,74,0.0,0.0,90,0.00,,,0.07,,2013-02-14 02:41:00,
2013-02-13 21:52:00,42.0,39.0,29.90,ENE,74,0.0,0.0,90,0.00,,,0.07,,2013-02-14 02:52:00,
2013-02-13 22:02:00,40.0,37.0,29.91,ENE,74,0.0,0.0,90,0.00,,,0.07,,2013-02-14 03:02:00,
2013-02-13 22:11:00,39.0,36.0,29.92,ENE,74,0.0,0.0,90,0.00,,,0.07,,2013-02-14 03:11:00,
2013-02-13 22:22:00,39.0,36.0,29.92,ENE,74,0.0,0.0,90,0.00,,,0.07,,2013-02-14 03:22:00,
2013-02-13 22:32:00,39.0,37.0,29.93,ENE,74,0.0,0.0,91,0.00,,,0.07,,2013-02-14 03:32:00,
2013-02-13 22:42:00,39.0,37.0,29.93,ENE,74,0.0,0.0,91,0.00,,,0.07,,2013-02-14 03:42:00,
2013-02-13 22:52:00,38.0,36.0,29.94,ENE,74,0.0,0.0,91,0.00,,,0.07,,2013-02-14 03:52:00,
2013-02-13 23:01:00,37.0,35.0,29.94,SSW,213,0.0,1.0,91,0.00,,,0.07,,2013-02-14 04:01:00,
2013-02-13 23:12:00,37.0,35.0,29.94,SSW,213,0.0,0.0,91,0.00,,,0.07,,2013-02-14 04:12:00,
2013-02-13 23:21:00,37.0,35.0,29.94,SSW,213,0.0,0.0,91,0.00,,,0.07,,2013-02-14 04:21:00,
2013-02-13 23:32:00,36.0,34.0,29.94,SSW,213,0.0,0.0,91,0.00,,,0.07,,2013-02-14 04:32:00,
2013-02-13 23:42:00,36.0,34.0,29.94,SSW,213,0.0,0.0,91,0.00,,,0.07,,2013-02-14 04:42:00,
2013-02-13 23:52:00,35.0,33.0,29.95,SSW,213,0.0,0.0,91,0.00,,,0.07,,2013-02-14 04:52:00,